Location: The Saddle
(36.8333°N, 80.3417°W)
Time: 09:35:24
(UTC-05:00)

S-56A Canister/Altair - Pass Details

Date: 12 December 2023
Orbit: 640 x 2488 km, 38.9° (Epoch: 25 February)

Event Time Altitude Azimuth Distance (km) Brightness Sun altitude
Rises 10:31:26 0° 258° (WSW) 3,914 11.0 25.3°
Reaches altitude 10° 10:34:33 10° 259° (WSW) 2,702 10.3 25.6°
Maximum altitude 10:40:39 84° 347° (NNW) 765 7.9 26.1°
Drops below altitude 10° 10:45:18 10° 76° (ENE) 2,080 10.0 26.5°
Sets 10:47:26 0° 78° (ENE) 2,945 10.7 26.6°
